Date String (YYYY-MM-DD hh:mm:ss) UTC,Instrument flags,Ambient pressure (hPa),Sample flow (lpm),Bypass flow (lpm),Sample temperature (°C),Ambient temperature (°C),ASC tube jacket temperature (°C),LED temperature (°C),Box temperature (°C),Sample RH (%),Span deviation,Mass concentration (μg/m³),Mass concentration (μg/m³),Mass concentration (μg/m³)
DateTimeUTC,F1_M11,P_M11,Q1_M11,Q2_M11,T1_M11,T2_M11,T3_M11,T4_M11,T5_M11,U1_M11,ZSPAN_M11,X0_M11,X2_M11,X1_M11
2022-06-02 05:00:00,,0830.4,5.00,0.00,28.2,27.1,00.0,37.2,30.0,21.6,0000.0,0007.80,0004.48,0004.21
2022-06-02 05:01:00,,0830.4,5.00,0.00,28.2,27.1,00.0,37.2,30.0,21.6,0000.0,0008.08,0004.50,0004.24
2022-06-02 05:02:00,,0830.4,5.00,0.00,28.2,27.0,00.0,37.2,30.0,21.6,0000.0,0008.04,0004.51,0004.27
2022-06-02 05:03:00,,0830.4,5.00,0.00,28.1,27.0,00.0,37.2,29.9,21.6,0000.0,0008.42,0004.54,0004.30
2022-06-02 05:04:00,,0830.4,4.99,0.00,28.1,27.0,00.0,37.2,29.9,21.6,0000.0,0009.20,0004.61,0004.35
2022-06-02 05:05:00,,0830.4,5.01,0.00,28.1,27.0,00.0,37.2,29.9,21.6,0000.0,0009.59,0004.66,0004.40
2022-06-02 05:06:00,,0830.3,5.00,0.00,28.1,27.0,00.0,37.2,29.8,21.7,0000.0,0009.12,0004.74,0004.46
2022-06-02 05:07:00,,0830.3,5.01,0.00,28.0,26.9,00.0,37.1,29.8,21.7,0000.0,0009.15,0004.80,0004.52
2022-06-02 05:08:00,,0830.2,4.99,0.00,28.0,26.9,00.0,37.1,29.8,21.7,0000.0,0009.17,0004.85,0004.59
2022-06-02 05:09:00,,0830.3,5.00,0.00,28.0,26.9,00.0,37.1,29.7,21.8,0000.0,0009.32,0004.90,0004.64
2022-06-02 05:10:00,,0830.2,5.00,0.00,28.0,26.9,00.0,37.1,29.7,21.8,0000.0,0009.36,0004.95,0004.70
2022-06-02 05:11:00,,0830.2,5.00,0.00,28.0,26.9,00.0,37.1,29.7,21.8,0000.0,0009.16,0005.00,0004.75
2022-06-02 05:12:00,,0830.3,4.99,0.00,27.9,26.9,00.0,37.0,29.7,21.8,0000.0,0008.89,0005.05,0004.79
2022-06-02 05:13:00,,0830.2,5.01,0.00,27.9,26.8,00.0,37.0,29.7,21.9,0000.0,0009.04,0005.12,0004.83
2022-06-02 05:14:00,,0830.2,5.01,0.00,27.9,26.8,00.0,37.0,29.6,21.9,0000.0,0008.64,0005.14,0004.86
2022-06-02 05:15:00,,0830.2,5.00,0.00,27.8,26.7,00.0,37.0,29.6,22.0,0000.0,0007.91,0005.14,0004.90
2022-06-02 05:16:00,,0830.2,5.00,0.00,27.8,26.7,00.0,37.0,29.6,22.0,0000.0,0008.11,0005.16,0004.94
2022-06-02 05:17:00,,0830.2,4.98,0.00,27.8,26.7,00.0,36.9,29.6,22.0,0000.0,0008.15,0005.16,0004.96
2022-06-02 05:18:00,,0830.2,5.00,0.00,27.8,26.7,00.0,36.9,29.6,22.0,0000.0,0008.24,0005.21,0005.00
2022-06-02 05:19:00,,0830.1,5.01,0.00,27.8,26.7,00.0,36.9,29.6,22.0,0000.0,0008.24,0005.25,0005.04
2022-06-02 05:20:00,,0830.1,5.01,0.00,27.8,26.7,00.0,36.9,29.6,22.0,0000.0,0008.19,0005.28,0005.09
2022-06-02 05:21:00,,0830.1,4.99,0.00,27.8,26.7,00.0,36.9,29.6,22.0,0000.0,0008.79,0005.32,0005.11
2022-06-02 05:22:00,,0830.1,5.00,0.00,27.8,26.7,00.0,36.9,29.6,22.0,0000.0,0008.85,0005.34,0005.13
2022-06-02 05:23:00,,0830.2,5.01,0.00,27.8,26.7,00.0,36.9,29.6,22.0,0000.0,0008.84,0005.35,0005.16
2022-06-02 05:24:00,,0830.1,5.00,0.00,27.8,26.8,00.0,36.9,29.6,21.9,0000.0,0008.82,0005.37,0005.19
2022-06-02 05:25:00,,0830.1,5.00,0.00,27.8,26.8,00.0,36.9,29.7,21.9,0000.0,0008.86,0005.38,0005.19
2022-06-02 05:26:00,,0830.1,4.99,0.00,27.8,26.8,00.0,36.9,29.7,21.9,0000.0,0008.85,0005.38,0005.19
2022-06-02 05:27:00,,0830.1,5.01,0.00,27.8,26.8,00.0,36.9,29.7,21.9,0000.0,0008.75,0005.38,0005.18
2022-06-02 05:28:00,,0830.1,5.00,0.00,27.8,26.8,00.0,36.8,29.7,21.9,0000.0,0009.23,0005.37,0005.17
2022-06-02 05:29:00,,0830.1,4.99,0.00,27.8,26.8,00.0,36.8,29.7,21.9,0000.0,0009.27,0005.35,0005.15
2022-06-02 05:30:00,,0830.1,5.00,0.00,27.8,26.8,00.0,36.8,29.7,21.9,0000.0,0009.38,0005.34,0005.13
2022-06-02 05:31:00,,0830.0,5.01,0.00,27.8,26.8,00.0,36.8,29.7,21.9,0000.0,0009.32,0005.30,0005.09
2022-06-02 05:32:00,,0830.1,5.00,0.00,27.8,26.8,00.0,36.8,29.7,21.9,0000.0,0008.70,0005.25,0005.06
2022-06-02 05:33:00,,0830.0,5.00,0.00,27.8,26.8,00.0,36.8,29.7,21.9,0000.0,0008.61,0005.23,0005.05
2022-06-02 05:34:00,,0830.1,5.00,0.00,27.8,26.8,00.0,36.8,29.7,21.9,0000.0,0008.57,0005.20,0005.03
2022-06-02 05:35:00,,0830.0,4.99,0.00,27.8,26.8,00.0,36.8,29.7,21.9,0000.0,0008.59,0005.19,0005.01
2022-06-02 05:36:00,,0830.1,5.00,0.00,27.8,26.8,00.0,36.8,29.7,21.9,0000.0,0008.63,0005.20,0005.01
2022-06-02 05:37:00,,0830.0,5.00,0.00,27.8,26.8,00.0,36.8,29.7,21.9,0000.0,0008.66,0005.22,0005.02
2022-06-02 05:38:00,,0830.1,4.99,0.00,27.8,26.9,00.0,36.8,29.7,21.9,0000.0,0008.42,0005.26,0005.04
2022-06-02 05:39:00,,0830.1,5.01,0.00,27.8,26.9,00.0,36.8,29.7,21.8,0000.0,0007.96,0005.31,0005.05
2022-06-02 05:40:00,,0830.0,5.00,0.00,27.9,26.9,00.0,36.8,29.7,21.8,0000.0,0008.23,0005.33,0005.06
2022-06-02 05:41:00,,0830.0,5.01,0.00,27.9,26.9,00.0,36.8,29.7,21.8,0000.0,0008.26,0005.35,0005.08
2022-06-02 05:42:00,,0830.1,5.00,0.00,27.9,26.9,00.0,36.8,29.7,21.8,0000.0,0008.41,0005.38,0005.12
2022-06-02 05:43:00,,0830.0,4.99,0.00,27.9,26.9,00.0,36.8,29.7,21.9,0000.0,0008.51,0005.45,0005.17
2022-06-02 05:44:00,,0830.0,5.00,0.00,27.9,26.9,00.0,36.8,29.7,21.8,0000.0,0008.73,0005.50,0005.20
2022-06-02 05:45:00,,0830.0,5.01,0.00,27.9,26.9,00.0,36.8,29.8,21.8,0000.0,0009.10,0005.56,0005.23
2022-06-02 05:46:00,,0829.9,4.99,0.00,27.9,26.9,00.0,36.8,29.8,21.8,0000.0,0009.08,0005.57,0005.25
2022-06-02 05:47:00,,0830.0,5.01,0.00,27.9,26.9,00.0,36.8,29.8,21.8,0000.0,0008.99,0005.54,0005.26
2022-06-02 05:48:00,,0829.9,5.01,0.00,27.9,26.9,00.0,36.8,29.8,21.7,0000.0,0009.00,0005.55,0005.26
2022-06-02 05:49:00,,0829.9,4.99,0.00,27.9,26.9,00.0,36.8,29.8,21.7,0000.0,0009.11,0005.55,0005.25
2022-06-02 05:50:00,,0829.9,5.00,0.00,27.9,26.9,00.0,36.8,29.8,21.7,0000.0,0009.13,0005.52,0005.24
2022-06-02 05:51:00,,0829.8,5.00,0.00,27.9,26.9,00.0,36.8,29.8,21.6,0000.0,0009.39,0005.53,0005.23
2022-06-02 05:52:00,,0829.9,4.99,0.00,27.9,26.9,00.0,36.8,29.8,21.6,0000.0,0009.10,0005.50,0005.20
2022-06-02 05:53:00,,0829.8,4.99,0.00,27.9,26.9,00.0,36.8,29.8,21.5,0000.0,0008.95,0005.46,0005.16
2022-06-02 05:54:00,,0829.9,5.00,0.00,27.9,26.9,00.0,36.8,29.8,21.5,0000.0,0008.79,0005.38,0005.09
2022-06-02 05:55:00,,0829.9,5.00,0.00,27.9,26.9,00.0,36.8,29.8,21.5,0000.0,0008.62,0005.30,0005.04
2022-06-02 05:56:00,,0829.9,4.99,0.00,27.9,26.9,00.0,36.8,29.8,21.4,0000.0,0008.21,0005.24,0004.98
2022-06-02 05:57:00,,0829.9,5.00,0.00,27.9,26.9,00.0,36.8,29.8,21.4,0000.0,0008.18,0005.21,0004.94
2022-06-02 05:58:00,,0829.9,5.00,0.00,27.9,26.9,00.0,36.8,29.8,21.3,0000.0,0008.14,0005.17,0004.90
2022-06-02 05:59:00,,0829.9,5.00,0.00,27.9,26.9,00.0,36.8,29.8,21.3,0000.0,0008.12,0005.11,0004.85
